Regional Weather Roundup
Issued by NWS Binghamton, NY

Home | Current Version | Previous Version | Text Only | Print | Product List | Glossary On
Versions: 1 2 3 4 5 6 7 8 9 10 11 12 13 14 15 16 17 18 19 20 21 22 23 24 25 26 27 28 29 30 31 32 33 34 35 36 37 38 39 40 41 42 43 44 45 46 47 48 49 50
000
ASUS41 KBGM 232210
RWRBGM
RWRBGM
BINGHAMTON REGIONAL WEATHER ROUNDUP
NATIONAL WEATHER SERVICE BINGHAMTON NY
500 PM EST SUN NOV 23 2014

Note: "fair" indicates few or no clouds below 12,000 feet with no
significant weather and/or obstructions to visibility.

* = Station(s) that does not report precipitation, such as rain,
snow, etc, also no thunder or fog.

!NYZ009-015>018-022>025-036-037-044>046-055>057-062-232300
...CENTRAL NEW YORK...

CITY           SKY/WX    TMP DP  RH WIND       PRES   REMARKS
BINGHAMTON     MOCLDY    45  31  58 SE8       30.01F
CORTLAND       FAIR      43  37  81 NE5       30.02F
DANSVILLE      MOCLDY    51  39  63 SE10      29.92F
ELMIRA         MOCLDY    46  36  68 CALM      29.99F
ITHACA         MOCLDY    46  36  68 SE10      30.01F
HAMILTON       CLOUDY    46  37  71 S8        30.02F
MONTICELLO     PTCLDY    46  28  49 SE6       30.09S
NORWICH        CLEAR     45  36  70 CALM      30.04F
PENN YAN       CLOUDY    44  38  79 SE5       29.96F
ROME           CLOUDY    48  39  71 SE7       30.04S
SIDNEY         CLEAR     43  39  87 CALM      30.04F
SYRACUSE       CLOUDY    51  40  65 SE8       29.98F
$$

!PAZ038>040-043-044-047-048-072-232300
...NORTHEAST PENNSYLVANIA...

CITY           SKY/WX    TMP DP  RH WIND       PRES   REMARKS
HAZLETON       PTCLDY    50  23  34 SE6       30.07F
SCRANTON       MOCLDY    49  25  39 VRB6      30.04F
TOWANDA*         N/A     46  30  53 CALM      30.02F
$$
&&
KEY
WCI = WIND CHILL INDEX
VSB = VISIBILITY
HX  = HEAT INDEX
$$



USA.gov is the U.S. government's official web portal to all federal, state and local government web resources and services.